Simultaneous Nadir Overpasses (SNOs) Predictions

Prediction of SNOs between AQUA and NPP Satellite Orbit:

Table of predicted SNOs for the next 14.0 days since TLE Epoch: 8/19/2023
Index Date (AQUA) Time (AQUA) Lat,Lon (AQUA) SZA (AQUA ) Date (NPP) Time (NPP) Lat,Lon (NPP) SZA (NPP ) Distance(km) Time Diff (sec)
1 08/19/2023 21:28:13 80.76, 129.06 77.51 08/19/2023 21:27:54 80.77, 129.10 77.51 0.85 19
2 08/19/2023 22:17:36 -80.81, -62.64 102.59 08/19/2023 22:18:37 -80.81, -62.79 102.61 2.61 61
3 08/22/2023 11:13:29 -80.73, 102.41 101.63 08/22/2023 11:12:34 -80.73, 102.42 101.59 0.38 55
4 08/22/2023 12:02:49 80.83, -88.75 78.20 08/22/2023 12:03:14 80.83, -88.69 78.17 0.97 25
5 08/25/2023 01:48:05 -80.80,-115.38 100.92 08/25/2023 01:47:55 -80.80,-115.40 100.91 0.60 10
6 08/25/2023 02:37:26 80.86, 53.12 78.96 08/25/2023 02:38:36 80.86, 53.13 78.91 0.21 70
7 08/27/2023 15:33:19 80.76,-142.16 80.01 08/27/2023 15:32:35 80.76,-142.14 80.04 0.50 44
8 08/27/2023 16:22:42 -80.81, 26.17 100.09 08/27/2023 16:23:18 -80.81, 26.04 100.09 2.23 36
9 08/30/2023 06:07:54 80.80, -0.26 80.80 08/30/2023 06:07:57 80.80, -0.41 80.83 2.62 3
10 09/01/2023 19:53:06 -80.80, -26.46 98.33 09/01/2023 19:52:36 -80.80, -26.47 98.31 0.30 30



Historial Predications of SNOs between AQUA and NPP
